Date,TemperatureHighF,TemperatureAvgF,TemperatureLowF,DewpointHighF,DewpointAvgF,DewpointLowF,HumidityHigh,HumidityAvg,HumidityLow,PressureMaxIn,PressureMinIn,WindSpeedMaxMPH,WindSpeedAvgMPH,GustSpeedMaxMPH,PrecipitationSumIn
2013-4-1,63.9,48.2,34.3,46.9,39.0,14.1,96,73,42,29.79,29.50,23,7,23,0.36
2013-4-2,44.8,34.5,28.2,21.9,15.3,10.4,55,45,40,29.94,29.79,25,8,25,0.12
2013-4-3,47.7,37.0,29.8,23.7,16.5,11.5,46,43,39,30.14,29.94,26,10,26,0.00
2013-4-4,57.9,41.3,27.5,31.8,20.6,10.4,61,44,37,30.29,30.03,15,6,15,0.00
2013-4-5,63.7,47.2,37.6,36.2,28.9,20.1,67,51,36,30.03,29.61,23,6,23,0.00
2013-4-6,50.5,39.5,29.5,26.5,19.2,10.2,57,44,39,30.29,29.85,17,6,17,0.00
2013-4-7,55.4,41.6,25.3,40.3,26.0,9.1,76,55,38,30.29,30.00,28,7,28,0.00
2013-4-8,70.3,55.4,43.3,46.4,41.2,36.3,91,62,34,30.06,29.94,18,3,45,0.00
2013-4-9,75.9,59.4,32.0,56.4,43.4,-4.0,93,59,34,30.06,25.74,20,4,20,0.00
2013-4-10,69.8,54.6,45.0,52.6,45.0,39.7,93,72,50,29.97,29.82,13,2,13,0.20
2013-4-11,57.9,48.8,40.6,51.4,42.0,27.5,96,79,48,30.08,29.79,9,2,9,0.00
2013-4-12,41.5,39.3,38.1,37.5,34.2,28.1,96,82,61,30.11,29.73,12,2,12,0.35
2013-4-13,57.4,45.2,36.1,45.3,36.5,32.6,97,75,46,29.91,29.70,13,4,13,0.04
2013-4-14,55.2,45.3,36.9,41.2,30.9,20.6,84,59,39,30.20,29.88,17,4,17,0.00
2013-4-15,61.0,45.5,30.4,36.5,30.3,22.6,80,57,39,30.35,30.17,12,3,12,0.00
2013-4-16,65.3,51.3,34.3,49.4,40.7,31.0,91,69,44,30.38,30.06,27,7,27,0.00
2013-4-17,70.3,59.5,44.8,50.9,41.6,32.4,82,54,33,30.29,30.06,18,6,18,0.00
2013-4-18,64.2,50.4,36.1,46.2,36.1,-56.0,93,62,36,30.38,30.11,23,6,23,0.00
2013-4-19,73.6,62.2,51.8,63.4,57.1,43.8,98,84,59,30.11,29.67,25,9,25,0.00
2013-4-20,63.9,54.5,44.4,62.8,42.9,23.5,97,69,39,30.20,29.61,23,7,23,0.68
2013-4-21,58.1,44.5,32.7,31.9,24.0,14.7,64,45,37,30.65,30.20,17,5,17,0.00
2013-4-22,58.3,43.7,30.9,36.7,29.5,24.7,85,60,37,30.68,30.53,13,2,13,0.00
2013-4-23,43.0,41.1,37.9,40.8,36.7,28.3,95,85,66,30.53,30.06,12,3,12,0.08
2013-4-24,76.3,53.6,41.0,51.4,44.8,39.6,97,76,32,30.06,29.79,16,7,48,0.00
2013-4-25,67.1,55.3,43.3,44.0,37.1,20.6,76,53,34,30.23,29.82,17,6,17,0.12
2013-4-26,66.7,50.2,33.6,40.2,32.7,20.1,78,53,34,30.38,30.23,13,2,13,0.00
2013-4-27,66.2,50.3,34.9,48.5,36.2,29.8,93,62,34,30.38,30.26,13,2,13,0.00
2013-4-28,70.7,54.0,36.0,46.8,35.5,26.8,91,54,33,30.32,30.20,17,4,17,0.00
2013-4-29,69.4,56.8,44.8,47.6,38.5,28.6,87,54,34,30.26,30.17,15,4,15,0.00
2013-4-30,72.7,56.6,39.9,41.9,33.2,23.2,69,43,33,30.32,30.23,12,2,12,0.00